| time (UTC) | temp C | wind direction | speed KPH | gust KPH | rain 1hr cm | rain 24hr cm | rain mn cm | humidity % | barometer mb |
| 20260831082349 | 23 | 62 | 0.0 | 0.0 | 0.00 | 0.00 | 0.00 | 90 | 1017.0 |
| 20260831081845 | 23 | 62 | 0.0 | 0.0 | 0.00 | 0.00 | 0.00 | 91 | 1016.9 |
| 20260831081340 | 23 | 62 | 0.0 | 0.0 | 0.00 | 0.00 | 0.00 | 90 | 1017.0 |
| 20260831080836 | 23 | 62 | 0.0 | 0.0 | 0.00 | 0.00 | 0.00 | 90 | 1016.7 |
| 20260831080336 | 23 | 62 | 0.0 | 0.0 | 0.00 | 0.00 | 0.00 | 90 | 1016.8 |
| 20260831075832 | 23 | 62 | 0.0 | 0.0 | 0.00 | 0.00 | 0.00 | 90 | 1016.8 |
| 20260831075326 | 23 | 62 | 0.0 | 0.0 | 0.00 | 0.00 | 0.00 | 90 | 1017.1 |
| 20260831074821 | 23 | 62 | 0.0 | 0.0 | 0.00 | 0.00 | 0.00 | 90 | 1017.2 |
| 20260831074320 | 23 | 62 | 0.0 | 0.0 | 0.00 | 0.00 | 0.00 | 90 | 1017.0 |
| 20260831073816 | 23 | 62 | 0.0 | 0.0 | 0.00 | 0.00 | 0.00 | 90 | 1016.9 |
| 20260831073315 | 23 | 62 | 0.0 | 0.0 | 0.00 | 0.00 | 0.00 | 90 | 1016.9 |
| 20260831072811 | 23 | 62 | 0.0 | 0.0 | 0.00 | 0.00 | 0.00 | 89 | 1017.2 |
| 20260831072307 | 23 | 62 | 0.0 | 0.0 | 0.00 | 0.00 | 0.00 | 89 | 1017.2 |
| 20260831071802 | 23 | 62 | 0.0 | 0.0 | 0.00 | 0.00 | 0.00 | 89 | 1017.0 |
| 20260831071256 | 23 | 61 | 0.0 | 0.0 | 0.00 | 0.00 | 0.00 | 90 | 1017.2 |
| 20260831070756 | 23 | 62 | 0.0 | 0.0 | 0.00 | 0.00 | 0.00 | 90 | 1017.1 |
| 20260831070255 | 23 | 61 | 0.0 | 0.0 | 0.00 | 0.00 | 0.00 | 90 | 1017.0 |
| 20260831065754 | 23 | 62 | 0.0 | 0.0 | 0.00 | 0.00 | 0.00 | 90 | 1017.1 |
| 20260831065252 | 23 | 62 | 0.0 | 0.0 | 0.00 | 0.00 | 0.00 | 90 | 1017.2 |
| 20260831064748 | 23 | 62 | 0.0 | 0.0 | 0.00 | 0.00 | 0.00 | 90 | 1017.3 |
| 20260831064243 | 23 | 61 | 0.0 | 0.0 | 0.00 | 0.00 | 0.00 | 90 | 1017.1 |
| 20260831063739 | 23 | 61 | 0.0 | 0.0 | 0.00 | 0.00 | 0.00 | 90 | 1017.2 |
| 20260831063234 | 23 | 62 | 0.0 | 0.0 | 0.00 | 0.00 | 0.00 | 89 | 1017.2 |
| 20260831062733 | 23 | 61 | 0.0 | 0.0 | 0.00 | 0.00 | 0.00 | 89 | 1017.0 |
| 20260831062229 | 24 | 61 | 0.0 | 0.0 | 0.00 | 0.00 | 0.00 | 88 | 1017.1 |
| 20260831061726 | 24 | 61 | 0.0 | 0.0 | 0.00 | 0.00 | 0.00 | 88 | 1017.1 |
| 20260831061222 | 24 | 62 | 0.0 | 0.0 | 0.00 | 0.00 | 0.00 | 88 | 1017.1 |
| 20260831060719 | 24 | 62 | 0.0 | 0.0 | 0.00 | 0.00 | 0.00 | 87 | 1017.0 |
| 20260831060219 | 24 | 61 | 0.0 | 0.0 | 0.00 | 0.00 | 0.00 | 88 | 1017.3 |
| 20260831055718 | 24 | 61 | 0.0 | 0.0 | 0.00 | 0.00 | 0.00 | 88 | 1017.2 |
| 20260831055213 | 24 | 61 | 0.0 | 0.0 | 0.00 | 0.00 | 0.00 | 88 | 1017.2 |
| 20260831054713 | 24 | 61 | 0.0 | 0.0 | 0.00 | 0.00 | 0.00 | 88 | 1017.3 |
| 20260831054209 | 24 | 61 | 0.0 | 0.0 | 0.00 | 0.00 | 0.00 | 88 | 1017.3 |
| 20260831053708 | 25 | 61 | 0.0 | 0.0 | 0.00 | 0.00 | 0.00 | 87 | 1017.4 |
| 20260831053206 | 25 | 62 | 0.0 | 0.0 | 0.00 | 0.00 | 0.00 | 87 | 1017.2 |
| 20260831052706 | 25 | 61 | 0.0 | 0.0 | 0.00 | 0.00 | 0.00 | 87 | 1017.3 |
| 20260831052206 | 25 | 61 | 0.0 | 0.0 | 0.00 | 0.00 | 0.00 | 87 | 1017.2 |
| 20260831051704 | 25 | 61 | 0.0 | 0.0 | 0.00 | 0.00 | 0.00 | 87 | 1017.5 |
| 20260831051203 | 25 | 61 | 0.0 | 0.0 | 0.00 | 0.00 | 0.00 | 86 | 1017.3 |
| 20260831050703 | 25 | 62 | 0.0 | 0.0 | 0.00 | 0.00 | 0.00 | 86 | 1017.3 |
| 20260831050202 | 25 | 61 | 0.0 | 0.0 | 0.00 | 0.00 | 0.00 | 86 | 1017.3 |
| 20260831045657 | 25 | 61 | 0.0 | 0.0 | 0.00 | 0.00 | 0.00 | 86 | 1017.3 |
| 20260831045151 | 25 | 62 | 0.0 | 0.0 | 0.00 | 0.00 | 0.00 | 85 | 1017.3 |
| 20260831044646 | 25 | 62 | 0.0 | 0.0 | 0.00 | 0.00 | 0.00 | 85 | 1017.2 |
| 20260831044141 | 25 | 62 | 0.0 | 0.0 | 0.00 | 0.00 | 0.00 | 85 | 1017.3 |
| 20260831043637 | 25 | 62 | 0.0 | 0.0 | 0.00 | 0.00 | 0.00 | 84 | 1017.3 |
| 20260831043132 | 25 | 68 | 0.0 | 0.0 | 0.00 | 0.00 | 0.00 | 84 | 1017.4 |
| 20260831042631 | 26 | 50 | 0.0 | 0.0 | 0.00 | 0.00 | 0.00 | 84 | 1017.3 |
| 20260831042126 | 26 | 50 | 0.0 | 0.0 | 0.00 | 0.00 | 0.00 | 84 | 1017.3 |
| 20260831041621 | 26 | 55 | 0.0 | 0.0 | 0.00 | 0.00 | 0.00 | 84 | 1017.4 |
| 20260831041121 | 26 | 63 | 0.0 | 0.0 | 0.00 | 0.00 | 0.00 | 84 | 1017.3 |
| 20260831040616 | 26 | 63 | 0.0 | 0.0 | 0.00 | 0.00 | 0.00 | 84 | 1017.2 |
| 20260831040115 | 26 | 62 | 0.0 | 0.0 | 0.00 | 0.00 | 0.00 | 83 | 1017.3 |
| 20260831035614 | 26 | 62 | 0.0 | 0.0 | 0.00 | 0.00 | 0.00 | 83 | 1017.2 |
| 20260831035109 | 26 | 67 | 0.0 | 0.0 | 0.00 | 0.00 | 0.00 | 83 | 1017.2 |
| 20260831034608 | 26 | 61 | 0.0 | 0.0 | 0.00 | 0.00 | 0.00 | 83 | 1017.3 |
| 20260831034103 | 26 | 61 | 0.0 | 0.0 | 0.00 | 0.00 | 0.00 | 83 | 1017.0 |
| 20260831033558 | 26 | 61 | 0.0 | 0.0 | 0.00 | 0.00 | 0.00 | 83 | 1017.0 |
| 20260831033048 | 26 | 62 | 0.0 | 0.0 | 0.00 | 0.00 | 0.00 | 82 | 1017.2 |
| 20260831032547 | 26 | 62 | 0.0 | 0.0 | 0.00 | 0.00 | 0.00 | 82 | 1017.1 |
| 20260831032043 | 26 | 61 | 0.0 | 0.0 | 0.00 | 0.00 | 0.00 | 81 | 1017.1 |
| 20260831031542 | 26 | 61 | 0.0 | 0.0 | 0.00 | 0.00 | 0.00 | 81 | 1017.3 |
| 20260831031042 | 26 | 62 | 0.0 | 0.0 | 0.00 | 0.00 | 0.00 | 81 | 1017.0 |
| 20260831030541 | 26 | 63 | 0.0 | 0.0 | 0.00 | 0.00 | 0.00 | 80 | 1017.1 |
| 20260831030040 | 27 | 56 | 0.0 | 0.0 | 0.00 | 0.00 | 0.00 | 80 | 1017.0 |
| 20260831025538 | 27 | 56 | 0.0 | 0.0 | 0.00 | 0.00 | 0.00 | 79 | 1017.0 |
| 20260831025034 | 27 | 67 | 0.0 | 0.0 | 0.00 | 0.00 | 0.00 | 79 | 1017.0 |
| 20260831024530 | 27 | 108 | 1.6 | 3.2 | 0.00 | 0.00 | 0.00 | 78 | 1017.1 |
| 20260831024029 | 27 | 42 | 0.0 | 0.0 | 0.00 | 0.00 | 0.00 | 78 | 1017.0 |
| 20260831023528 | 27 | 49 | 0.0 | 0.0 | 0.00 | 0.00 | 0.00 | 78 | 1016.9 |
| 20260831023027 | 27 | 56 | 0.0 | 0.0 | 0.00 | 0.00 | 0.00 | 77 | 1017.0 |
| 20260831022527 | 27 | 53 | 0.0 | 1.6 | 0.00 | 0.00 | 0.00 | 77 | 1017.1 |
| 20260831022023 | 27 | 53 | 0.0 | 0.0 | 0.00 | 0.00 | 0.00 | 77 | 1017.0 |
| 20260831021521 | 27 | 67 | 0.0 | 0.0 | 0.00 | 0.00 | 0.00 | 76 | 1016.9 |
| 20260831021018 | 27 | 58 | 0.0 | 0.0 | 0.00 | 0.00 | 0.00 | 77 | 1016.8 |
| 20260831020513 | 27 | 68 | 0.0 | 0.0 | 0.00 | 0.00 | 0.00 | 76 | 1016.9 |
| 20260831020007 | 27 | 70 | 0.0 | 1.6 | 0.00 | 0.00 | 0.00 | 76 | 1016.9 |
| 20260831015503 | 27 | 71 | 0.0 | 0.0 | 0.00 | 0.00 | 0.00 | 76 | 1016.7 |
| 20260831014958 | 28 | 70 | 0.0 | 0.0 | 0.00 | 0.00 | 0.00 | 76 | 1016.6 |
| 20260831014452 | 28 | 71 | 0.0 | 0.0 | 0.00 | 0.00 | 0.00 | 76 | 1016.4 |
| 20260831013948 | 28 | 69 | 0.0 | 0.0 | 0.00 | 0.00 | 0.00 | 75 | 1016.6 |
| 20260831013443 | 27 | 54 | 0.0 | 0.0 | 0.00 | 0.00 | 0.00 | 75 | 1016.4 |
| 20260831012938 | 27 | 57 | 0.0 | 0.0 | 0.00 | 0.00 | 0.00 | 76 | 1016.1 |
| 20260831012433 | 27 | 57 | 0.0 | 0.0 | 0.00 | 0.00 | 0.00 | 75 | 1016.1 |
| 20260831011932 | 28 | 50 | 0.0 | 0.0 | 0.00 | 0.00 | 0.00 | 76 | 1016.1 |
| 20260831011427 | 27 | 73 | 1.6 | 1.6 | 0.00 | 0.00 | 0.00 | 75 | 1016.1 |
| 20260831010923 | 28 | 62 | 0.0 | 0.0 | 0.00 | 0.00 | 0.00 | 75 | 1016.0 |
| 20260831010418 | 28 | 62 | 0.0 | 0.0 | 0.00 | 0.00 | 0.00 | 74 | 1016.0 |
| 20260831005913 | 28 | 62 | 0.0 | 0.0 | 0.00 | 0.00 | 0.00 | 73 | 1015.9 |
| 20260831005409 | 28 | 62 | 0.0 | 0.0 | 0.00 | 0.00 | 0.00 | 72 | 1016.0 |
| 20260831004903 | 28 | 62 | 0.0 | 0.0 | 0.00 | 0.00 | 0.00 | 71 | 1016.1 |
| 20260831004359 | 29 | 62 | 0.0 | 0.0 | 0.00 | 0.00 | 0.00 | 70 | 1016.0 |
| 20260831003855 | 29 | 56 | 0.0 | 0.0 | 0.00 | 0.00 | 0.00 | 70 | 1015.9 |
| 20260831003351 | 29 | 61 | 0.0 | 0.0 | 0.00 | 0.00 | 0.00 | 69 | 1015.9 |
| 20260831002850 | 29 | 69 | 0.0 | 0.0 | 0.00 | 0.00 | 0.00 | 68 | 1016.1 |
| 20260831002349 | 30 | 60 | 0.0 | 0.0 | 0.00 | 0.00 | 0.00 | 67 | 1016.1 |
| 20260831001845 | 30 | 61 | 0.0 | 0.0 | 0.00 | 0.00 | 0.00 | 66 | 1016.1 |
| 20260831001345 | 30 | 69 | 0.0 | 0.0 | 0.00 | 0.00 | 0.00 | 65 | 1016.1 |
| 20260831000843 | 30 | 67 | 0.0 | 1.6 | 0.00 | 0.00 | 0.00 | 65 | 1016.1 |
| 20260831000340 | 30 | 60 | 0.0 | 0.0 | 0.00 | 0.00 | 0.00 | 64 | 1016.3 |
| 20260830235836 | 30 | 61 | 0.0 | 0.0 | 0.00 | 0.00 | 0.00 | 62 | 1016.4 |
| 20260830235331 | 30 | 54 | 0.0 | 0.0 | 0.00 | 0.00 | 0.00 | 63 | 1016.0 |
| 20260830234827 | 31 | 54 | 0.0 | 0.0 | 0.00 | 0.00 | 0.00 | 63 | 1016.1 |
| 20260830234322 | 31 | 54 | 0.0 | 0.0 | 0.00 | 0.00 | 0.00 | 61 | 1015.9 |
| 20260830233818 | 31 | 52 | 0.0 | 0.0 | 0.00 | 0.00 | 0.00 | 59 | 1015.8 |
| 20260830233313 | 32 | 67 | 0.0 | 0.0 | 0.00 | 0.00 | 0.00 | 62 | 1015.9 |
| 20260830232808 | 32 | 60 | 0.0 | 0.0 | 0.00 | 0.00 | 0.00 | 57 | 1016.0 |
| 20260830232306 | 32 | 47 | 0.0 | 0.0 | 0.00 | 0.00 | 0.00 | 56 | 1015.9 |
| 20260830231800 | 32 | 54 | 0.0 | 0.0 | 0.00 | 0.00 | 0.00 | 57 | 1016.0 |
| 20260830231300 | 32 | 50 | 0.0 | 0.0 | 0.00 | 0.00 | 0.00 | 54 | 1016.0 |
| 20260830230755 | 33 | 61 | 0.0 | 0.0 | 0.00 | 0.00 | 0.00 | 53 | 1016.0 |
| 20260830230250 | 33 | 60 | 0.0 | 0.0 | 0.00 | 0.00 | 0.00 | 55 | 1016.0 |
| 20260830225750 | 33 | 64 | 0.0 | 0.0 | 0.00 | 0.00 | 0.00 | 52 | 1016.0 |
| 20260830225245 | 33 | 73 | 0.0 | 1.6 | 0.00 | 0.00 | 0.00 | 52 | 1015.9 |
| 20260830224744 | 33 | 49 | 0.0 | 1.6 | 0.00 | 0.00 | 0.00 | 52 | 1016.1 |
| 20260830224239 | 34 | 221 | 4.8 | 4.8 | 0.00 | 0.00 | 0.00 | 50 | 1015.9 |
| 20260830223736 | 34 | 58 | 0.0 | 0.0 | 0.00 | 0.00 | 0.00 | 49 | 1015.8 |
| 20260830223232 | 33 | 84 | 1.6 | 1.6 | 0.00 | 0.00 | 0.00 | 49 | 1015.8 |
| 20260830222726 | 33 | 57 | 0.0 | 0.0 | 0.00 | 0.00 | 0.00 | 51 | 1015.8 |
| 20260830222221 | 33 | 50 | 0.0 | 0.0 | 0.00 | 0.00 | 0.00 | 58 | 1015.9 |
| 20260830221717 | 32 | 48 | 0.0 | 0.0 | 0.00 | 0.00 | 0.00 | 53 | 1015.8 |
| 20260830221214 | 33 | 67 | 0.0 | 1.6 | 0.00 | 0.00 | 0.00 | 51 | 1015.9 |
| 20260830220709 | 34 | 51 | 1.6 | 1.6 | 0.00 | 0.00 | 0.00 | 49 | 1015.9 |
| 20260830220207 | 35 | 38 | 1.6 | 1.6 | 0.00 | 0.00 | 0.00 | 47 | 1015.9 |
| 20260830215707 | 35 | 213 | 3.2 | 6.4 | 0.00 | 0.00 | 0.00 | 44 | 1015.8 |
| 20260830215201 | 35 | 66 | 0.0 | 1.6 | 0.00 | 0.00 | 0.00 | 47 | 1015.9 |
| 20260830214657 | 35 | 43 | 1.6 | 3.2 | 0.00 | 0.00 | 0.00 | 47 | 1015.8 |
| 20260830214156 | 35 | 79 | 4.8 | 6.4 | 0.00 | 0.00 | 0.00 | 47 | 1016.0 |
| 20260830213656 | 35 | 53 | 1.6 | 3.2 | 0.00 | 0.00 | 0.00 | 45 | 1016.0 |
| 20260830213151 | 36 | 60 | 1.6 | 3.2 | 0.00 | 0.00 | 0.00 | 48 | 1016.1 |
| 20260830212647 | 35 | 46 | 4.8 | 6.4 | 0.00 | 0.00 | 0.00 | 45 | 1016.1 |
| 20260830212142 | 35 | 72 | 1.6 | 1.6 | 0.00 | 0.00 | 0.00 | 49 | 1016.4 |
| 20260830211637 | 35 | 46 | 0.0 | 0.0 | 0.00 | 0.00 | 0.00 | 45 | 1016.5 |
| 20260830211136 | 36 | 139 | 3.2 | 3.2 | 0.00 | 0.00 | 0.00 | 46 | 1016.5 |
| 20260830210632 | 36 | 9 | 3.2 | 3.2 | 0.00 | 0.00 | 0.00 | 45 | 1016.4 |
| 20260830210131 | 36 | 39 | 1.6 | 1.6 | 0.00 | 0.00 | 0.00 | 45 | 1016.5 |
| 20260830205628 | 35 | 46 | 3.2 | 4.8 | 0.00 | 0.00 | 0.00 | 42 | 1016.5 |
| 20260830205124 | 36 | 210 | 3.2 | 3.2 | 0.00 | 0.00 | 0.00 | 44 | 1016.5 |
| 20260830204624 | 36 | 28 | 3.2 | 3.2 | 0.00 | 0.00 | 0.00 | 43 | 1016.4 |
| 20260830204122 | 36 | 273 | 3.2 | 6.4 | 0.00 | 0.00 | 0.00 | 45 | 1016.3 |
| 20260830203619 | 36 | 48 | 1.6 | 1.6 | 0.00 | 0.00 | 0.00 | 44 | 1016.6 |
| 20260830203119 | 36 | 196 | 3.2 | 3.2 | 0.00 | 0.00 | 0.00 | 44 | 1016.7 |
| 20260830202619 | 36 | 53 | 0.0 | 1.6 | 0.00 | 0.00 | 0.00 | 41 | 1016.8 |
| 20260830202114 | 36 | 15 | 3.2 | 3.2 | 0.00 | 0.00 | 0.00 | 42 | 1016.8 |
| 20260830201613 | 36 | 279 | 6.4 | 6.4 | 0.00 | 0.00 | 0.00 | 47 | 1017.1 |
| 20260830201108 | 35 | 194 | 6.4 | 9.7 | 0.00 | 0.00 | 0.00 | 47 | 1017.0 |
| 20260830200604 | 35 | 100 | 1.6 | 3.2 | 0.00 | 0.00 | 0.00 | 47 | 1017.1 |
| 20260830200103 | 35 | 67 | 1.6 | 3.2 | 0.00 | 0.00 | 0.00 | 46 | 1016.9 |
| 20260830195559 | 35 | 287 | 8.0 | 11.3 | 0.00 | 0.00 | 0.00 | 44 | 1017.1 |
| 20260830195056 | 35 | 76 | 1.6 | 3.2 | 0.00 | 0.00 | 0.00 | 47 | 1017.1 |
| 20260830194551 | 35 | 117 | 3.2 | 3.2 | 0.00 | 0.00 | 0.00 | 46 | 1017.0 |
| 20260830194051 | 34 | 357 | 3.2 | 3.2 | 0.00 | 0.00 | 0.00 | 49 | 1017.2 |
| 20260830193550 | 35 | 18 | 3.2 | 4.8 | 0.00 | 0.00 | 0.00 | 47 | 1017.3 |
| 20260830193045 | 35 | 33 | 1.6 | 3.2 | 0.00 | 0.00 | 0.00 | 47 | 1017.3 |
| 20260830192541 | 35 | 75 | 3.2 | 4.8 | 0.00 | 0.00 | 0.00 | 45 | 1017.5 |
| 20260830192036 | 33 | 51 | 1.6 | 1.6 | 0.00 | 0.00 | 0.00 | 53 | 1017.4 |
| 20260830191531 | 33 | 101 | 0.0 | 3.2 | 0.00 | 0.00 | 0.00 | 50 | 1017.7 |
| 20260830191026 | 33 | 14 | 3.2 | 3.2 | 0.00 | 0.00 | 0.00 | 48 | 1017.7 |
| 20260830190521 | 35 | 32 | 3.2 | 3.2 | 0.00 | 0.00 | 0.00 | 47 | 1017.7 |
| 20260830190016 | 35 | 90 | 4.8 | 4.8 | 0.00 | 0.00 | 0.00 | 45 | 1017.5 |
| 20260830185510 | 34 | 35 | 3.2 | 4.8 | 0.00 | 0.00 | 0.00 | 47 | 1017.6 |
| 20260830185006 | 34 | 46 | 1.6 | 3.2 | 0.00 | 0.00 | 0.00 | 51 | 1018.0 |
| 20260830184504 | 34 | 269 | 6.4 | 6.4 | 0.00 | 0.00 | 0.00 | 46 | 1018.0 |
| 20260830184000 | 34 | 302 | 9.7 | 12.9 | 0.00 | 0.00 | 0.00 | 45 | 1018.0 |
| 20260830183459 | 35 | 318 | 9.7 | 12.9 | 0.00 | 0.00 | 0.00 | 45 | 1018.0 |
| 20260830182949 | 33 | 265 | 1.6 | 4.8 | 0.00 | 0.00 | 0.00 | 51 | 1017.9 |
| 20260830182444 | 33 | 197 | 1.6 | 4.8 | 0.00 | 0.00 | 0.00 | 47 | 1018.3 |
| 20260830181940 | 33 | 342 | 4.8 | 4.8 | 0.00 | 0.00 | 0.00 | 47 | 1018.2 |
| 20260830181437 | 33 | 14 | 4.8 | 6.4 | 0.00 | 0.00 | 0.00 | 46 | 1018.5 |
| 20260830180930 | 33 | 297 | 4.8 | 6.4 | 0.00 | 0.00 | 0.00 | 44 | 1018.3 |
| 20260830180430 | 33 | 325 | 3.2 | 6.4 | 0.00 | 0.00 | 0.00 | 47 | 1018.2 |
| 20260830175929 | 34 | 86 | 1.6 | 3.2 | 0.00 | 0.00 | 0.00 | 48 | 1018.3 |
| 20260830175429 | 34 | 256 | 8.0 | 12.9 | 0.00 | 0.00 | 0.00 | 46 | 1018.4 |
| 20260830174924 | 33 | 29 | 1.6 | 1.6 | 0.00 | 0.00 | 0.00 | 48 | 1018.3 |
| 20260830174420 | 33 | 254 | 6.4 | 9.7 | 0.00 | 0.00 | 0.00 | 48 | 1018.3 |
| 20260830173915 | 33 | 152 | 3.2 | 3.2 | 0.00 | 0.00 | 0.00 | 49 | 1018.3 |
| 20260830173410 | 33 | 313 | 4.8 | 4.8 | 0.00 | 0.00 | 0.00 | 50 | 1018.4 |
| 20260830172906 | 33 | 317 | 9.7 | 12.9 | 0.00 | 0.00 | 0.00 | 48 | 1018.4 |
| 20260830172402 | 33 | 244 | 9.7 | 12.9 | 0.00 | 0.00 | 0.00 | 50 | 1018.5 |
| 20260830171857 | 33 | 33 | 6.4 | 11.3 | 0.00 | 0.00 | 0.00 | 47 | 1018.5 |
| 20260830171353 | 33 | 127 | 1.6 | 3.2 | 0.00 | 0.00 | 0.00 | 51 | 1018.6 |
| 20260830170848 | 33 | 318 | 11.3 | 12.9 | 0.00 | 0.00 | 0.00 | 48 | 1018.6 |
| 20260830170347 | 33 | 296 | 6.4 | 11.3 | 0.00 | 0.00 | 0.00 | 50 | 1018.6 |
| 20260830165846 | 33 | 90 | 3.2 | 3.2 | 0.00 | 0.00 | 0.00 | 52 | 1018.5 |
| 20260830165342 | 33 | 66 | 3.2 | 4.8 | 0.00 | 0.00 | 0.00 | 51 | 1018.7 |
| 20260830164838 | 32 | 112 | 3.2 | 4.8 | 0.00 | 0.00 | 0.00 | 50 | 1018.7 |
| 20260830164334 | 32 | 268 | 4.8 | 4.8 | 0.00 | 0.00 | 0.00 | 50 | 1018.9 |
| 20260830163831 | 33 | 298 | 6.4 | 6.4 | 0.00 | 0.00 | 0.00 | 50 | 1018.8 |
| 20260830163326 | 32 | 151 | 3.2 | 4.8 | 0.00 | 0.00 | 0.00 | 53 | 1018.8 |
| 20260830162821 | 32 | 281 | 8.0 | 11.3 | 0.00 | 0.00 | 0.00 | 49 | 1018.9 |
| 20260830162318 | 32 | 66 | 0.0 | 1.6 | 0.00 | 0.00 | 0.00 | 53 | 1018.9 |
| 20260830161817 | 32 | 236 | 6.4 | 6.4 | 0.00 | 0.00 | 0.00 | 50 | 1018.9 |
| 20260830161316 | 33 | 290 | 3.2 | 4.8 | 0.00 | 0.00 | 0.00 | 48 | 1018.9 |
| 20260830160812 | 33 | 47 | 3.2 | 3.2 | 0.00 | 0.00 | 0.00 | 50 | 1018.9 |
| 20260830160313 | 33 | 322 | 3.2 | 3.2 | 0.00 | 0.00 | 0.00 | 50 | 1018.7 |
| 20260830155808 | 32 | 57 | 0.0 | 1.6 | 0.00 | 0.00 | 0.00 | 50 | 1018.9 |
| 20260830155306 | 32 | 80 | 0.0 | 1.6 | 0.00 | 0.00 | 0.00 | 51 | 1018.6 |
| 20260830154805 | 32 | 301 | 4.8 | 4.8 | 0.00 | 0.00 | 0.00 | 49 | 1018.8 |
| 20260830154300 | 32 | 59 | 0.0 | 0.0 | 0.00 | 0.00 | 0.00 | 51 | 1018.8 |
| 20260830153757 | 32 | 77 | 3.2 | 3.2 | 0.00 | 0.00 | 0.00 | 54 | 1018.8 |
| 20260830153252 | 31 | 34 | 1.6 | 1.6 | 0.00 | 0.00 | 0.00 | 55 | 1018.7 |
| 20260830152750 | 31 | 183 | 3.2 | 6.4 | 0.00 | 0.00 | 0.00 | 55 | 1018.7 |
| 20260830152245 | 31 | 15 | 1.6 | 1.6 | 0.00 | 0.00 | 0.00 | 54 | 1018.9 |
| 20260830151745 | 31 | 172 | 1.6 | 1.6 | 0.00 | 0.00 | 0.00 | 56 | 1018.7 |
| 20260830151244 | 32 | 319 | 3.2 | 4.8 | 0.00 | 0.00 | 0.00 | 55 | 1018.5 |
| 20260830150740 | 31 | 289 | 4.8 | 4.8 | 0.00 | 0.00 | 0.00 | 59 | 1018.7 |
| 20260830150240 | 31 | 33 | 0.0 | 1.6 | 0.00 | 0.00 | 0.00 | 64 | 1018.8 |
| 20260830145740 | 30 | 56 | 0.0 | 0.0 | 0.00 | 0.00 | 0.00 | 61 | 1019.0 |
| 20260830145235 | 30 | 23 | 1.6 | 1.6 | 0.00 | 0.00 | 0.00 | 65 | 1019.0 |
| 20260830144729 | 30 | 24 | 3.2 | 3.2 | 0.00 | 0.00 | 0.00 | 63 | 1018.7 |
| 20260830144226 | 30 | 334 | 3.2 | 6.4 | 0.00 | 0.00 | 0.00 | 65 | 1018.8 |
| 20260830143722 | 29 | 53 | 1.6 | 1.6 | 0.00 | 0.00 | 0.00 | 66 | 1018.9 |
| 20260830143219 | 28 | 37 | 1.6 | 3.2 | 0.00 | 0.00 | 0.00 | 68 | 1018.8 |
| 20260830142715 | 28 | 113 | 3.2 | 3.2 | 0.00 | 0.00 | 0.00 | 69 | 1018.8 |
| 20260830142210 | 28 | 237 | 3.2 | 3.2 | 0.00 | 0.00 | 0.00 | 68 | 1018.9 |
| 20260830141705 | 28 | 262 | 3.2 | 3.2 | 0.00 | 0.00 | 0.00 | 69 | 1018.8 |
| 20260830141200 | 28 | 59 | 1.6 | 1.6 | 0.00 | 0.00 | 0.00 | 69 | 1018.8 |
| 20260830140655 | 27 | 73 | 1.6 | 1.6 | 0.00 | 0.00 | 0.00 | 71 | 1018.8 |
| 20260830140150 | 27 | 64 | 0.0 | 0.0 | 0.00 | 0.00 | 0.00 | 74 | 1018.8 |
| 20260830135645 | 27 | 210 | 4.8 | 6.4 | 0.00 | 0.00 | 0.00 | 72 | 1018.9 |
| 20260830135140 | 27 | 63 | 1.6 | 1.6 | 0.00 | 0.00 | 0.00 | 73 | 1018.8 |
| 20260830134636 | 26 | 41 | 1.6 | 1.6 | 0.00 | 0.00 | 0.00 | 75 | 1019.1 |
| 20260830134131 | 26 | 64 | 0.0 | 1.6 | 0.00 | 0.00 | 0.00 | 76 | 1019.0 |
| 20260830133627 | 25 | 327 | 3.2 | 3.2 | 0.00 | 0.00 | 0.00 | 77 | 1018.9 |
| 20260830133122 | 25 | 258 | 3.2 | 4.8 | 0.00 | 0.00 | 0.00 | 77 | 1019.2 |
| 20260830132618 | 25 | 5 | 1.6 | 3.2 | 0.00 | 0.00 | 0.00 | 80 | 1019.2 |
| 20260830132113 | 25 | 82 | 1.6 | 1.6 | 0.00 | 0.00 | 0.00 | 80 | 1019.1 |
| 20260830131612 | 25 | 64 | 3.2 | 3.2 | 0.00 | 0.00 | 0.00 | 79 | 1019.1 |
| 20260830131107 | 25 | 31 | 1.6 | 1.6 | 0.00 | 0.00 | 0.00 | 77 | 1019.0 |
| 20260830130601 | 25 | 56 | 0.0 | 0.0 | 0.00 | 0.00 | 0.00 | 80 | 1019.0 |
| 20260830130057 | 24 | 64 | 0.0 | 0.0 | 0.00 | 0.00 | 0.00 | 82 | 1019.0 |
| 20260830125551 | 24 | 49 | 0.0 | 1.6 | 0.00 | 0.00 | 0.00 | 81 | 1019.1 |
| 20260830125050 | 23 | 59 | 0.0 | 0.0 | 0.00 | 0.00 | 0.00 | 83 | 1019.1 |
| 20260830124549 | 22 | 60 | 0.0 | 0.0 | 0.00 | 0.00 | 0.00 | 87 | 1018.7 |
| 20260830124045 | 22 | 61 | 0.0 | 0.0 | 0.00 | 0.00 | 0.00 | 90 | 1018.7 |
| 20260830123542 | 21 | 60 | 0.0 | 0.0 | 0.00 | 0.00 | 0.00 | 94 | 1019.0 |
| 20260830123038 | 20 | 61 | 0.0 | 0.0 | 0.00 | 0.00 | 0.00 | 98 | 1018.8 |
| 20260830122533 | 20 | 59 | 0.0 | 0.0 | 0.00 | 0.00 | 0.00 | 98 | 1019.0 |
| 20260830122029 | 20 | 59 | 0.0 | 0.0 | 0.00 | 0.00 | 0.00 | 98 | 1018.8 |
| 20260830121525 | 19 | 59 | 0.0 | 0.0 | 0.00 | 0.00 | 0.00 | 98 | 1019.1 |
| 20260830121024 | 19 | 59 | 0.0 | 0.0 | 0.00 | 0.00 | 0.00 | 98 | 1018.7 |
| 20260830120520 | 19 | 60 | 0.0 | 0.0 | 0.00 | 0.00 | 0.00 | 98 | 1018.7 |
| 20260830120017 | 19 | 60 | 0.0 | 0.0 | 0.00 | 0.00 | 0.00 | 98 | 1018.7 |
| 20260830115513 | 19 | 60 | 0.0 | 0.0 | 0.00 | 0.00 | 0.00 | 98 | 1018.7 |
| 20260830115007 | 19 | 60 | 0.0 | 0.0 | 0.00 | 0.00 | 0.00 | 98 | 1018.4 |
| 20260830114504 | 19 | 60 | 0.0 | 0.0 | 0.00 | 0.00 | 0.00 | 98 | 1018.6 |
| 20260830114003 | 19 | 60 | 0.0 | 0.0 | 0.00 | 0.00 | 0.00 | 98 | 1018.3 |
| 20260830113458 | 19 | 60 | 0.0 | 0.0 | 0.00 | 0.00 | 0.00 | 98 | 1018.3 |
| 20260830112954 | 19 | 60 | 0.0 | 0.0 | 0.00 | 0.00 | 0.00 | 98 | 1018.4 |
| 20260830112450 | 18 | 59 | 0.0 | 0.0 | 0.00 | 0.00 | 0.00 | 98 | 1018.4 |
| 20260830111946 | 18 | 59 | 0.0 | 0.0 | 0.00 | 0.00 | 0.00 | 98 | 1018.4 |
| 20260830111441 | 18 | 59 | 0.0 | 0.0 | 0.00 | 0.00 | 0.00 | 98 | 1018.0 |
| 20260830110937 | 18 | 59 | 0.0 | 0.0 | 0.00 | 0.00 | 0.00 | 98 | 1018.0 |
| 20260830110432 | 18 | 59 | 0.0 | 0.0 | 0.00 | 0.00 | 0.00 | 98 | 1017.9 |
| 20260830105931 | 18 | 59 | 0.0 | 0.0 | 0.00 | 0.00 | 0.00 | 98 | 1017.9 |
| 20260830105428 | 18 | 59 | 0.0 | 0.0 | 0.00 | 0.00 | 0.00 | 98 | 1017.8 |
| 20260830104924 | 18 | 59 | 0.0 | 0.0 | 0.00 | 0.00 | 0.00 | 98 | 1018.0 |
| 20260830104420 | 18 | 59 | 0.0 | 0.0 | 0.00 | 0.00 | 0.00 | 98 | 1018.0 |
| 20260830103919 | 18 | 59 | 0.0 | 0.0 | 0.00 | 0.00 | 0.00 | 97 | 1017.7 |
| 20260830103415 | 18 | 59 | 0.0 | 0.0 | 0.00 | 0.00 | 0.00 | 97 | 1017.9 |
| 20260830102913 | 18 | 59 | 0.0 | 0.0 | 0.00 | 0.00 | 0.00 | 97 | 1017.9 |
| 20260830102409 | 18 | 59 | 0.0 | 0.0 | 0.00 | 0.00 | 0.00 | 97 | 1017.7 |
| 20260830101905 | 18 | 59 | 0.0 | 0.0 | 0.00 | 0.00 | 0.00 | 97 | 1017.9 |
| 20260830101400 | 18 | 59 | 0.0 | 0.0 | 0.00 | 0.00 | 0.00 | 97 | 1017.7 |
| 20260830100900 | 18 | 59 | 0.0 | 0.0 | 0.00 | 0.00 | 0.00 | 97 | 1017.7 |
| 20260830100359 | 18 | 59 | 0.0 | 0.0 | 0.00 | 0.00 | 0.00 | 97 | 1017.7 |
| 20260830095858 | 18 | 59 | 0.0 | 0.0 | 0.00 | 0.00 | 0.00 | 97 | 1017.6 |
| 20260830095354 | 18 | 59 | 0.0 | 0.0 | 0.00 | 0.00 | 0.00 | 97 | 1017.6 |
| 20260830094849 | 18 | 59 | 0.0 | 0.0 | 0.00 | 0.00 | 0.00 | 97 | 1017.7 |
| 20260830094346 | 18 | 59 | 0.0 | 0.0 | 0.00 | 0.00 | 0.00 | 96 | 1017.6 |
| 20260830093841 | 18 | 59 | 0.0 | 0.0 | 0.00 | 0.00 | 0.00 | 96 | 1017.5 |
| 20260830093336 | 18 | 59 | 0.0 | 0.0 | 0.00 | 0.00 | 0.00 | 96 | 1017.7 |
| 20260830092832 | 18 | 59 | 0.0 | 0.0 | 0.00 | 0.00 | 0.00 | 96 | 1017.7 |
| 20260830092328 | 18 | 59 | 0.0 | 0.0 | 0.00 | 0.00 | 0.00 | 96 | 1017.7 |
| 20260830091824 | 18 | 59 | 0.0 | 0.0 | 0.00 | 0.00 | 0.00 | 96 | 1017.8 |
| 20260830091324 | 18 | 59 | 0.0 | 0.0 | 0.00 | 0.00 | 0.00 | 95 | 1017.6 |
| 20260830090823 | 18 | 59 | 0.0 | 0.0 | 0.00 | 0.00 | 0.00 | 95 | 1017.8 |
| 20260830090318 | 18 | 59 | 0.0 | 0.0 | 0.00 | 0.00 | 0.00 | 95 | 1017.8 |
| 20260830085818 | 18 | 59 | 0.0 | 0.0 | 0.00 | 0.00 | 0.00 | 94 | 1017.7 |
| 20260830085313 | 18 | 59 | 0.0 | 0.0 | 0.00 | 0.00 | 0.00 | 94 | 1017.7 |
| 20260830084809 | 18 | 59 | 0.0 | 0.0 | 0.00 | 0.00 | 0.00 | 94 | 1017.8 |
| 20260830084304 | 19 | 59 | 0.0 | 0.0 | 0.00 | 0.00 | 0.00 | 94 | 1017.7 |
| 20260830083759 | 19 | 59 | 0.0 | 0.0 | 0.00 | 0.00 | 0.00 | 94 | 1017.7 |
| 20260830083255 | 19 | 59 | 0.0 | 0.0 | 0.00 | 0.00 | 0.00 | 93 | 1017.6 |